Zurück zum Katalog

SL-12 DEB

LostHEO
NORAD 33586·DEBRIS·🇷🇺 Russia

Gestartet May 31, 1989 von Baikonur Cosmodrome

Loading…

Nächste Überflüge (nächste 24 Stunden)

TLE

VeraltetSource: Space-Track

Epoche: Oct 24, 2011, 07:13 UTC

1 33586U 89039EE  11297.30074087 +.00005114 +00000-0 +12041-1 0  9993
2 33586 065.0250 289.4567 5680853 343.0221 008.0080 04.31678541042838

Verfolge SL-12 DEB in Echtzeit mit AllMySat

Download on the App Store